CW0210 Weather Reports


time (UTC)temp
C
wind
direction
speed
KPH
gust
KPH
rain 1hr
cm
rain 24hr
cm
rain mn
cm
humidity
%
barometer
mb
20260507201532 18 355 3.2 0.0 0.00 0.00 0.28 30 1002.5
20260507200031 18 36 3.2 0.0 0.00 0.00 0.28 30 1002.7
20260507194542 18 274 6.4 0.0 0.00 0.00 0.28 29 1002.9
20260507193028 19 313 3.2 0.0 0.00 0.00 0.28 30 1002.9
20260507191526 19 252 3.2 0.0 0.00 0.00 0.28 30 1003.0
20260507190039 19 260 3.2 0.0 0.00 0.00 0.28 29 1003.1
20260507184532 19 292 4.8 0.0 0.00 0.00 0.28 31 1003.3
20260507183021 19 42 1.6 0.0 0.00 0.00 0.28 34 1003.3
20260507181519 18 259 4.8 0.0 0.00 0.00 0.28 35 1003.5
20260507180019 18 305 4.8 0.0 0.00 0.00 0.28 36 1003.6
20260507174514 18 235 3.2 0.0 0.00 0.00 0.28 39 1003.6
20260507173033 18 348 4.8 0.0 0.00 0.00 0.28 39 1003.6
20260507171510 17 301 3.2 0.0 0.00 0.00 0.28 45 1003.7
20260507170016 17 333 3.2 0.0 0.00 0.00 0.28 46 1003.9
20260507164503 16 269 3.2 0.0 0.00 0.00 0.28 52 1004.0
20260507163102 16 238 3.2 0.0 0.00 0.00 0.28 56 1004.1
20260507161603 15 279 1.6 0.0 0.00 0.00 0.28 56 1004.3
20260507160056 15 250 3.2 0.0 0.00 0.00 0.28 59 1004.5
20260507154559 15 259 1.6 0.0 0.00 0.00 0.28 59 1004.6
20260507153057 15 284 1.6 0.0 0.00 0.00 0.28 59 1004.7
20260507151554 15 228 1.6 0.0 0.00 0.00 0.28 59 1004.8
20260507150054 14 263 0.0 0.0 0.00 0.00 0.28 60 1005.0
20260507144554 13 336 3.2 0.0 0.00 0.00 0.28 59 1005.2
20260507143100 13 257 3.2 0.0 0.00 0.00 0.28 58 1005.1
20260507141551 13 253 1.6 0.0 0.00 0.00 0.28 61 1005.3
20260507140051 12 303 3.2 0.0 0.00 0.00 0.28 64 1005.4
20260507134550 12 259 3.2 0.0 0.00 0.00 0.28 66 1005.4
20260507133051 11 291 1.6 0.0 0.00 0.00 0.28 72 1005.3
20260507131545 11 259 1.6 0.0 0.00 0.00 0.28 77 1005.6
20260507130046 10 283 1.6 0.0 0.00 0.00 0.28 83 1005.5
20260507124547 10 278 1.6 0.0 0.00 0.00 0.28 87 1005.8
20260507123043 10 249 0.0 0.0 0.00 0.00 0.28 89 1005.8
20260507121542 10 248 1.6 0.0 0.00 0.00 0.28 91 1005.7
20260507120040 9 220 0.0 0.0 0.00 0.00 0.28 92 1005.5
20260507114556 9 238 0.0 0.0 0.00 0.00 0.28 92 1005.6
20260507113101 9 237 0.0 0.0 0.00 0.00 0.28 92 1005.4
20260507111542 9 252 0.0 0.0 0.00 0.00 0.28 92 1005.4
20260507110039 9 252 0.0 0.0 0.00 0.00 0.28 92 1005.1
20260507104541 9 253 0.0 0.0 0.00 0.00 0.28 92 1005.6
20260507103037 9 253 0.0 0.0 0.00 0.00 0.28 91 1005.6
20260507101534 9 253 0.0 0.0 0.00 0.00 0.28 91 1005.1
20260507100032 9 253 0.0 0.0 0.00 0.00 0.28 90 1004.9
20260507094533 10 232 0.0 0.0 0.00 0.00 0.25 90 1004.8
20260507093033 10 290 1.6 0.0 0.00 0.00 0.20 90 1004.7
20260507091525 10 269 0.0 0.0 0.00 0.00 0.15 89 1004.7
20260507090023 10 259 0.0 0.0 0.00 0.00 0.08 89 1004.9
20260507084525 11 258 0.0 0.0 0.00 0.00 0.08 88 1005.0
20260507083018 11 237 0.0 0.0 0.00 0.00 0.08 88 1004.6
20260507081525 11 241 0.0 0.0 0.00 0.00 0.05 88 1004.2
20260507080014 11 269 0.0 0.0 0.00 0.00 0.03 87 1004.5
20260507074513 12 290 1.6 0.0 0.00 0.00 0.03 85 1004.4
20260507073010 12 255 0.0 0.0 0.00 0.00 0.00 84 1004.1
20260507071511 12 257 0.0 0.0 0.00 0.00 0.00 83 1003.8
20260507070012 12 327 1.6 0.0 0.00 0.00 0.00 83 1003.7
20260507064505 12 290 1.6 0.0 0.00 0.00 0.00 87 1003.8
20260507063003 13 306 3.2 0.0 0.00 0.00 0.00 88 1003.8
20260507061502 13 302 1.6 0.0 0.00 0.00 0.00 88 1003.4
20260507060103 13 282 3.2 0.0 0.00 0.00 0.00 89 1003.9
20260507054559 13 295 3.2 0.0 0.00 0.00 0.00 89 1004.0
20260507053055 13 288 1.6 0.0 0.00 0.00 0.00 92 1004.1
20260507051553 14 251 1.6 0.0 0.00 0.00 0.00 91 1003.7
20260507050049 15 254 3.2 0.0 0.00 0.00 0.00 92 1003.8
20260507044604 15 284 1.6 0.0 0.00 0.00 0.00 93 1003.7
20260507043100 15 277 0.0 0.0 0.00 0.00 0.00 93 1003.6
20260507041544 15 245 0.0 0.0 0.00 0.00 0.00 93 1003.7
20260507040042 15 218 0.0 0.0 0.00 0.00 0.00 93 1004.0
20260507034542 15 236 0.0 0.0 0.00 0.00 0.10 93 1003.9
20260507033040 15 204 1.6 0.0 0.00 0.00 0.10 93 1003.8
20260507031545 15 232 1.6 0.0 0.00 0.00 0.10 93 1003.4
20260507030041 15 222 1.6 0.0 0.00 0.00 0.10 93 1003.1
20260507024539 15 261 1.6 0.0 0.00 0.00 0.10 93 1003.4
20260507023037 15 272 1.6 0.0 0.00 0.00 0.10 93 1003.4
20260507021539 15 223 0.0 0.0 0.00 0.00 0.10 93 1003.4
20260507020048 15 238 0.0 0.0 0.00 0.00 0.10 93 1003.3
20260507014536 15 207 1.6 0.0 0.00 0.00 0.10 93 1003.4
20260507013034 14 218 0.0 0.0 0.00 0.00 0.10 93 1003.6
20260507011543 14 216 1.6 0.0 0.00 0.00 0.10 93 1003.7
20260507010036 14 224 1.6 0.0 0.00 0.00 0.10 92 1003.8
20260507004533 14 212 0.0 0.0 0.00 0.00 0.10 92 1003.8
20260507003031 14 231 0.0 0.0 0.00 0.00 0.10 92 1003.8
20260507001602 14 239 1.6 0.0 0.00 0.00 0.10 92 1003.7
20260507000035 15 196 1.6 0.0 0.00 0.00 0.10 92 1003.6
20260506234528 15 206 0.0 0.0 0.00 0.00 0.08 91 1003.6
20260506233026 15 238 0.0 0.0 0.00 0.00 0.08 91 1003.5
20260506231525 15 270 0.0 0.0 0.00 0.00 0.05 90 1003.5
20260506230033 15 269 0.0 0.0 0.00 0.00 0.05 90 1003.4
20260506224522 16 203 1.6 0.0 0.00 0.00 0.05 92 1003.7
20260506223028 16 196 0.0 0.0 0.00 0.00 0.05 89 1003.8
20260506221519 16 227 0.0 0.0 0.00 0.00 0.05 89 1003.9
20260506220018 16 254 0.0 0.0 0.00 0.00 0.03 88 1004.1
20260506214516 17 180 0.0 0.0 0.00 0.00 0.03 87 1004.3
20260506213017 17 199 1.6 0.0 0.00 0.00 0.03 87 1004.3
20260506211520 17 229 1.6 0.0 0.00 0.00 0.03 86 1004.3
20260506210029 17 234 1.6 0.0 0.00 0.00 0.03 85 1004.4
20260506204514 17 289 1.6 0.0 0.00 0.00 0.03 84 1004.7
20260506203013 17 209 1.6 0.0 0.00 0.00 0.03 82 1004.7